Weather History for Clinton, BC

Change the Weather History Date:

Monday, June 30, 2014

  Actual Average Record
Temperature  
Mean Temperature 57 °F -  
Max Temperature 73 °F 65 °F 87 °F (2008)
Min Temperature 41 °F 42 °F 37 °F (2011)
Degree Days  
Heating Degree Days 8    
Growing Degree Days 7 (Base 50)    
Moisture  
Dew Point 43 °F    
Average Humidity 62    
Maximum Humidity 96    
Minimum Humidity 20    
Precipitation  
Precipitation 0.04 in - - ()
Sea Level Pressure  
Sea Level Pressure 30.24 in    
Wind  
Wind Speed 3 mph ()    
Max Wind Speed 7 mph    
Max Gust Speed -    
Visibility 9.0 miles    
Events      
Averages and records for this station are not official NWS values.
T = Trace of Precipitation, MM = Missing Value Source: Averaged Metar Reports

Daily Weather History Graph

Daily Weather History Graph

Search for Another Location

Airport:

Trip Planner

Search our weather history database for the weather conditions in past years. The results will help you decide how hot, cold, wet, or windy it might be!

Date:

Astronomy

Jun. 30, 2014 Rise Set
Actual Time 4:54 AM PDT 9:24 PM PDT
Civil Twilight 4:08 AM PDT 10:11 PM PDT
Nautical Twilight 2:57 AM PDT 11:21 PM PDT
Astronomical Twilight 1:42 AM PDT 12:37 AM PDT
Moon 8:37 AM PDT (6/30) 10:51 PM PDT (6/30)
Length of Visible Light 18h 02m
Length of Day
16h 30m
Waxing Crescent, 11% of the Moon is Illuminated
Jun 30
Waxing Crescent
Jul 5
First Quarter
Jul 12
Full
Jul 18
Last Quarter
Jul 26
New

Hourly Weather History & Observations

Time (PDT) Temp. Windchill Dew Point Humidity Pressure Visibility Wind Dir Wind Speed Gust Speed Precip Events Conditions
12:00 AM 44.6 °F 42.2 °F 42.8 °F 93% 30.19 in 9.0 mi WSW 4.6 mph - N/A   Unknown
1:00 AM 42.8 °F 38.6 °F 41.0 °F 93% 30.22 in 9.0 mi SW 6.9 mph - N/A   Unknown
2:00 AM 42 °F - 41 °F 96% 30.23 in 9 mi SW 3.5 mph - -  
2:00 AM 42.8 °F 41.1 °F 41.0 °F 93% 30.23 in 9.0 mi SW 3.5 mph - N/A   Unknown
3:00 AM 44.6 °F - 42.8 °F 93% 30.25 in 9.0 mi NNW 2.3 mph - N/A   Unknown
4:00 AM 44.6 °F - 42.8 °F 93% 30.26 in 9.0 mi Calm Calm - N/A   Unknown
5:00 AM 41 °F - 40 °F 94% 30.29 in 9 mi WSW 3.5 mph - -  
5:00 AM 41.0 °F 39.0 °F 39.2 °F 93% 30.29 in 9.0 mi WSW 3.5 mph - N/A   Unknown
6:00 AM 42.8 °F - 41.0 °F 93% 30.30 in 9.0 mi Calm Calm - N/A   Unknown
7:00 AM 50.0 °F - 44.6 °F 82% 30.29 in 9.0 mi SW 2.3 mph - N/A   Unknown
8:00 AM 56 °F - 46 °F 59% 30.28 in 9 mi North 4.6 mph - -  
8:00 AM 55.4 °F - 46.4 °F 72% 30.28 in 9.0 mi North 5.8 mph - N/A   Unknown
9:00 AM 59.0 °F - 46.4 °F 63% 30.29 in 9.0 mi NNW 6.9 mph - N/A   Unknown
10:00 AM 60.8 °F - 46.4 °F 59% 30.28 in 9.0 mi NE 2.3 mph - N/A   Unknown
11:00 AM 63 °F - 46 °F 43% 30.27 in 9 mi NNE 3.5 mph - -  
11:00 AM 62.6 °F - 46.4 °F 55% 30.27 in 9.0 mi ENE 4.6 mph - N/A   Unknown
12:00 PM 62.6 °F - 42.8 °F 48% 30.27 in 9.0 mi Calm Calm - N/A   Unknown
1:00 PM 68.0 °F - 44.6 °F 43% 30.26 in 9.0 mi ENE 3.5 mph - N/A   Unknown
2:00 PM 68 °F - 42 °F 28% 30.24 in 9 mi West 2.3 mph - -  
2:00 PM 68.0 °F - 42.8 °F 40% 30.24 in 9.0 mi NNW 2.3 mph - N/A   Unknown
3:00 PM 69.8 °F - 42.8 °F 38% 30.23 in 9.0 mi Calm Calm - N/A   Unknown
4:00 PM 69.8 °F - 39.2 °F 33% 30.22 in 9.0 mi WSW 2.3 mph - N/A   Unknown
5:00 PM 70 °F - 38 °F 20% 30.22 in 9 mi ENE 4.6 mph - -  
5:00 PM 69.8 °F - 37.4 °F 31% 30.22 in 9.0 mi NE 3.5 mph - N/A   Unknown
6:00 PM 69.8 °F - 42.8 °F 38% 30.20 in 9.0 mi East 5.8 mph - N/A   Unknown
7:00 PM 69.8 °F - 39.2 °F 33% 30.17 in 9.0 mi East 5.8 mph - N/A   Unknown
8:00 PM 64 °F - 46 °F 41% 30.17 in 9 mi East 2.3 mph - -  
8:00 PM 64.4 °F - 46.4 °F 52% 30.17 in 9.0 mi Calm Calm - N/A   Unknown
9:00 PM 57.2 °F - 44.6 °F 63% 30.17 in 9.0 mi Calm Calm - N/A   Unknown
10:00 PM 53.6 °F - 42.8 °F 67% 30.19 in 9.0 mi Calm Calm - N/A   Unknown
11:00 PM 51 °F - 41 °F 60% 30.18 in 9 mi South 3.5 mph - -  
11:00 PM 50.0 °F - 41.0 °F 71% 30.18 in 9.0 mi South 2.3 mph - N/A   Unknown